METAR AND TAF INFORMATION
METAR FOR KFLL
KFLL 230353Z 13004KT 10SM FEW033 BKN250 27/23 A3007 RMK AO2 SLP182 T02670228
KFLL 230253Z 09005KT 10SM FEW022 SCT130 BKN250 27/23 A3007 RMK AO2 SLP182 T02670233 50003
KFLL 230153Z 14005KT 10SM FEW020 SCT130 BKN250 27/23 A3008 RMK AO2 SLP183 T02670233
KFLL 230526Z 2306/2412 VRB05KT P6SM VCSH SCT030 BKN080 BKN250
FM230900 12007KT P6SM VCSH SCT025 BKN050
FM231500 12011KT P6SM VCTS SCT025CB BKN050
FM232200 10010KT P6SM VCSH SCT030 BKN080 BKN250
FM240300 10008KT P6SM FEW030 SCT100 BKN250

 AIRPORT MAP

 RUNWAY INFORMATION
Runway 09L Runway length 9000 ft Runway width 150 ft
Runway elevation 6 ft Runway displaced threshold 577 ft Runway heading 90
Runway 27R Runway length 9000 ft Runway width 150 ft
Runway elevation 5 ft Runway displaced threshold 604 ft Runway heading 270
Runway 09R Runway length 5276 ft Runway width 100 ft
Runway elevation 5 ft Runway displaced threshold 320 ft Runway heading 90
Runway 27L Runway length 5276 ft Runway width 100 ft
Runway elevation 5 ft Runway displaced threshold 142 ft Runway heading 270
Runway 13 Runway length 6930 ft Runway width 150 ft
Runway elevation 6 ft Runway displaced threshold 0 ft Runway heading 135
Runway 31 Runway length 6930 ft Runway width 150 ft
Runway elevation 6 ft Runway displaced threshold 70 ft Runway heading 315

 AIRPORT FREQUENCIES
Type APP Name MIAMI APP Frequency 118.1 MHZ
Type ATIS Name ATIS Frequency 135 MHZ
Type CLD Name CLNC DEL Frequency 128.4 MHZ
Type DEP Name MIAMI DEP Frequency 119.7 MHZ
Type GND Name GND Frequency 121.4 MHZ
Type TWR Name TWR Frequency 119.3 MHZ
Type UNIC Name UNICOM Frequency 122.95 MHZ

 AIRPORT NEAR NAVIGATION AIDS
Type VOR-DME Name Fort Lauderdale Frequency 114400 KHZ
Type NDB Name Plantation Frequency 242 KHZ

-